Location: Sungai Dangang
(2.7500°N, 113.8333°E)
Time: 20:00:55
(UTC+00:00)

Ariane H10 - Pass Details

Date: 16 May 2021
Orbit: 445 x 34980 km, 4.4° (Epoch: 19 June)

Event Time Altitude Azimuth Distance (km) Brightness Sun altitude
Exits shadow 21:29:35 10° 266° (W) 4,930 6.0 -11.2°
Maximum altitude 21:38:39 49° 193° (SSW) 976 2.9 -9.1°
Drops below altitude 10° 21:41:43 10° 115° (ESE) 1,705 5.0 -8.4°
Sets 21:43:13 0° 107° (ESE) 2,440 6.1 -8.0°
